GFSFLT1_850_spd_000.txt.gz
Wind_Speed
12 11 10 10 18 27 21 13 9 10 17 17 17 13 12 10 6 8 13 15 16 20 26 32 26 19 21 26 22 24 27 31
20 17 15 17 20 17 15 12 12 20 19 18 14 12 6 5 8 11 12 15 19 26 28 25 20 17 17 19 24 28 29 31
24 22 17 13 14 12 12 12 18 18 15 6 3 4 5 9 12 12 17 20 26 23 19 17 14 15 17 20 22 26 27 30
22 19 18 17 15 12 9 6 4 2 4 5 7 9 12 13 16 19 19 20 18 17 15 14 16 18 21 22 24 26 31 32
18 15 12 10 11 8 7 6 4 4 8 14 15 16 17 19 20 15 15 17 16 15 19 22 24 24 24 26 28 30 29 29
11 8 7 9 8 7 10 11 12 15 17 21 22 21 21 21 18 18 14 12 14 20 26 26 24 23 24 26 26 22 22 21
2 1 6 7 9 12 12 14 14 16 17 20 19 20 20 18 13 11 13 16 23 26 26 23 20 21 29 27 24 20 18 16
8 5 2 6 9 9 12 13 15 14 13 13 16 18 15 9 9 15 20 23 20 19 20 17 21 26 30 25 24 26 27 28
12 8 4 3 6 7 6 8 12 12 15 15 14 10 8 11 26 30 39 24 21 18 16 21 26 26 24 25 23 19 19 20
17 12 8 5 7 9 10 10 11 11 9 10 15 22 27 28 29 27 19 21 20 16 19 24 27 25 23 23 21 21 21 20
15 12 10 11 10 10 12 12 11 13 15 19 26 30 32 37 34 30 23 23 19 18 25 26 23 21 21 19 21 20 22 24
16 13 11 10 12 15 10 10 12 15 19 22 25 29 32 33 28 20 24 22 24 25 23 25 19 18 17 18 21 22 24 26
12 9 10 12 12 10 10 12 13 17 21 24 23 25 28 32 28 28 32 27 22 17 21 22 19 17 20 21 24 26 26 25
8 10 12 11 8 9 11 15 18 23 29 31 34 33 29 29 27 28 20 12 13 16 15 15 16 21 21 23 24 24 22 23
11 12 7 4 8 11 15 19 23 29 30 33 37 37 32 25 23 17 18 32 17 11 15 15 20 20 22 24 24 23 24 25
8 5 2 6 9 14 17 21 24 27 31 34 33 35 31 29 26 29 26 14 7 5 14 19 18 21 22 23 24 23 27 34
4 5 1 6 12 15 17 23 27 29 33 32 31 33 34 32 30 26 16 5 4 9 19 18 20 20 23 20 24 30 31 30
3 1 5 13 16 19 22 26 28 30 29 31 35 37 38 31 25 13 15 6 17 14 17 20 18 19 20 26 29 30 30 29
5 5 12 17 17 20 22 25 27 30 31 33 33 35 34 25 17 15 9 12 13 17 17 18 17 21 25 28 28 28 28 28

GFSFLT1_850_spd_003.txt.gz
Wind_Speed
8 14 16 12 26 28 27 23 18 10 14 15 13 11 8 5 5 7 10 13 15 17 19 25 29 26 22 20 21 22 23 24
9 7 9 11 17 23 19 19 8 7 10 12 12 7 2 4 9 12 14 16 20 23 25 25 22 19 17 19 21 23 24 27
21 17 12 8 9 8 8 6 4 5 9 4 4 10 12 13 13 15 21 22 21 21 24 21 19 18 19 21 23 25 26 28
15 13 12 10 8 6 8 7 2 4 7 10 12 10 11 14 18 21 21 19 19 18 16 17 20 21 22 22 23 24 27 25
18 18 17 14 12 9 7 6 6 8 10 12 14 13 17 16 18 17 16 17 16 16 19 23 29 27 23 22 26 26 24 21
18 15 12 10 10 7 8 9 11 13 14 15 17 17 17 17 12 11 9 12 17 20 25 33 31 21 23 26 31 25 20 17
15 12 9 8 5 4 4 5 7 10 13 15 17 17 16 13 13 10 13 23 29 33 36 26 24 25 29 28 30 24 22 22
11 9 6 3 1 1 3 4 8 12 15 18 20 19 18 16 15 26 32 27 28 28 24 21 23 21 23 22 21 22 21 17
12 9 4 5 4 4 4 6 9 11 12 12 13 15 19 21 21 25 26 28 24 22 20 20 18 21 21 20 20 20 20 17
14 10 9 6 4 4 6 9 9 7 8 10 15 19 23 25 27 29 31 30 25 17 13 17 19 19 18 17 18 16 16 18
17 14 9 4 4 7 8 5 4 6 9 12 16 17 18 22 26 28 29 23 23 22 24 21 12 16 19 18 16 16 20 22
16 10 5 4 6 5 2 2 5 9 13 20 23 24 28 31 31 30 26 22 18 17 15 10 19 14 15 18 19 20 23 24
11 6 2 3 1 1 4 7 11 16 22 27 28 31 33 33 30 23 17 16 17 18 25 20 11 14 16 17 21 23 24 25
6 2 4 5 2 3 7 12 17 21 26 29 32 34 31 35 32 22 20 21 24 26 19 7 11 16 18 19 22 24 28 26
4 5 5 5 3 6 10 15 19 24 28 30 34 31 32 32 29 21 19 24 23 12 8 6 13 19 18 22 25 26 23 25
6 5 6 5 6 10 14 17 23 28 30 30 29 31 32 32 28 21 18 18 16 10 7 10 18 18 22 22 23 23 27 31
6 5 8 8 10 12 14 20 25 28 29 27 27 31 33 31 27 18 13 15 11 8 13 17 17 21 20 21 23 28 30 30
8 10 11 10 13 14 17 20 24 25 24 24 29 30 29 29 23 13 11 11 9 12 16 17 19 21 22 23 26 29 29 29
10 11 11 12 13 14 15 20 22 22 21 27 28 29 31 26 18 10 8 15 13 18 14 16 22 22 23 25 29 26 25 25

GFSFLT1_850_spd_006.txt.gz
Wind_Speed
9 14 14 14 22 22 21 16 15 13 10 8 10 9 7 1 8 8 10 13 15 19 22 20 24 26 24 21 20 21 23 25
5 5 3 5 9 11 13 15 12 6 2 11 10 2 10 14 8 13 14 17 20 19 22 25 25 22 20 20 20 22 24 27
16 13 11 9 8 9 12 13 13 10 9 4 4 9 9 9 12 15 16 18 18 20 21 22 18 18 22 24 25 24 25 27
18 17 16 15 16 17 17 16 14 10 8 7 9 8 8 11 14 16 19 19 18 19 18 17 21 30 32 31 28 27 28 26
20 18 17 15 17 14 12 11 7 5 5 7 9 11 11 13 16 18 18 17 18 20 23 29 34 33 28 23 27 28 28 27
21 18 14 14 13 10 7 5 4 5 7 9 14 15 14 15 16 18 17 20 26 29 29 29 26 23 25 23 24 25 25 21
20 15 11 8 8 6 3 1 4 7 9 10 12 12 12 12 14 17 22 24 24 30 29 28 25 18 18 20 22 22 21 19
18 15 12 8 6 3 1 0 3 4 7 10 9 10 12 14 16 19 23 25 26 26 24 25 18 15 12 14 19 22 18 16
15 13 12 9 8 7 3 2 6 9 8 8 9 11 14 18 20 23 27 28 27 25 22 23 23 24 27 14 14 17 15 16
18 15 13 11 8 3 3 8 10 8 10 11 13 18 21 21 24 29 32 32 28 24 19 20 22 22 9 12 15 15 15 15
19 16 12 8 3 4 9 11 10 10 12 15 20 24 25 27 31 33 32 29 21 19 16 25 18 19 13 10 12 14 16 17
18 13 9 4 0 4 13 7 6 11 16 20 23 24 28 28 30 33 31 21 17 20 21 25 17 16 8 11 14 15 19 20
14 9 5 3 2 4 4 4 10 14 19 21 22 26 28 30 32 31 27 18 17 17 18 25 19 10 9 12 17 18 22 24
11 7 7 6 2 1 5 9 12 15 20 20 24 26 29 31 32 31 25 15 12 19 22 20 8 7 11 15 18 21 25 26
10 9 10 5 2 13 8 11 14 17 19 20 23 25 30 33 33 29 23 17 20 18 16 12 9 11 15 19 22 24 25 25
10 9 7 8 13 8 10 14 15 17 20 20 22 26 31 32 31 29 23 18 15 16 12 11 11 15 18 20 23 25 27 31
11 10 8 12 10 11 14 14 16 19 22 23 22 28 29 29 31 26 18 13 13 13 9 11 16 20 19 20 24 27 30 34
12 11 8 10 12 13 14 15 18 22 24 21 24 28 27 30 26 21 15 11 13 14 13 16 20 15 18 24 25 29 31 29
13 10 10 12 13 13 14 17 21 24 22 22 26 24 27 29 24 18 15 13 16 17 16 13 11 19 23 24 28 27 26 26

GFSFLT1_850_spd_009.txt.gz
Wind_Speed
10 12 14 11 14 15 12 12 11 10 9 7 3 4 6 2 9 12 9 12 13 16 16 17 21 22 21 19 19 20 22 24
6 6 5 4 4 3 5 4 3 3 6 9 10 8 5 10 9 9 10 12 14 16 15 19 20 20 20 20 22 24 26 27
10 10 12 12 10 12 16 15 14 13 12 8 5 6 4 5 8 11 12 13 14 15 17 17 19 23 26 27 25 22 22 26
24 22 22 23 23 20 19 18 16 13 10 6 2 1 4 8 11 12 14 15 15 17 18 21 25 26 24 20 18 18 16 22
23 24 25 23 21 19 18 17 13 9 5 1 2 5 7 10 12 13 12 14 18 21 24 26 25 24 20 19 19 19 18 14
22 20 19 20 20 17 14 10 7 4 1 3 5 6 7 7 8 10 14 19 22 25 27 30 29 23 20 19 18 13 16 19
21 20 19 18 16 14 11 8 6 3 2 3 6 6 6 8 11 15 20 24 27 29 31 29 26 25 23 20 19 22 19 19
18 17 16 15 15 12 9 6 2 2 5 9 10 11 12 15 19 24 26 29 31 32 28 25 24 23 18 17 20 14 12 13
16 14 14 15 14 12 9 4 2 5 8 11 12 10 14 18 21 24 27 30 31 29 26 23 21 20 17 24 14 10 12 12
17 16 16 15 13 10 5 6 7 7 9 9 12 17 20 22 25 27 29 29 28 24 20 17 18 18 25 13 9 9 11 14
20 19 16 13 11 8 6 6 8 10 10 13 18 21 24 25 26 28 29 29 26 20 17 19 14 20 15 7 7 9 13 15
23 18 15 12 9 5 6 9 13 10 11 16 19 23 24 24 27 29 28 26 21 14 16 16 20 20 13 10 9 11 14 17
21 17 14 11 6 3 7 10 10 10 12 17 19 22 22 25 28 29 27 25 17 12 15 18 21 23 13 10 11 13 17 21
21 17 14 10 5 3 8 10 8 10 14 16 18 18 21 25 29 29 28 26 22 15 16 24 21 13 10 13 15 17 22 21
20 17 13 10 5 9 15 5 7 11 15 18 18 18 21 27 29 30 29 26 21 17 17 18 15 13 12 14 18 20 24 24
20 16 14 12 8 12 5 6 10 14 18 19 20 20 23 28 29 30 27 22 17 15 15 13 8 11 15 18 18 22 25 27
19 17 14 13 8 8 8 9 12 17 19 22 22 21 25 29 28 29 24 19 14 13 13 14 12 12 19 19 20 24 27 31
20 17 14 9 7 10 10 12 16 19 22 23 22 23 28 26 27 26 22 18 15 15 17 16 19 18 12 21 22 26 29 28
19 15 12 9 11 13 13 16 18 22 23 22 23 26 25 25 27 23 19 17 17 17 19 16 12 13 20 20 25 27 24 24

GFSFLT1_850_spd_015.txt.gz
Wind_Speed
11 10 11 11 12 14 13 14 17 15 14 13 12 13 7 5 3 1 2 3 3 1 6 9 12 11 14 15 17 18 21 23
9 10 10 11 12 14 16 16 15 8 7 6 7 9 8 5 3 2 1 2 4 8 6 9 12 13 15 17 20 21 20 19
11 10 10 11 12 13 11 12 13 10 10 9 8 8 6 6 4 2 2 5 5 6 10 12 13 16 18 19 19 20 18 17
13 12 11 12 13 13 13 13 13 12 12 10 8 7 5 3 1 2 5 5 7 9 12 14 16 17 19 19 18 16 18 18
15 16 16 17 16 16 17 16 14 12 10 8 7 4 4 4 1 4 4 9 10 13 15 17 17 18 19 18 15 15 16 17
20 20 20 19 18 18 16 14 12 11 9 8 6 4 3 1 1 5 7 9 11 13 15 16 18 18 17 16 16 14 15 17
22 21 20 18 18 16 15 14 12 11 10 10 8 6 3 0 3 6 7 10 11 12 15 17 18 17 16 15 15 15 16 16
23 22 20 18 17 16 15 15 13 12 11 9 8 6 5 3 7 6 8 9 11 13 17 17 17 15 15 14 16 19 18 11
23 21 19 18 17 17 16 15 14 13 11 9 3 2 9 4 5 6 7 9 12 15 15 16 15 13 14 16 16 14 12 13
23 21 19 18 18 18 18 16 15 13 10 2 6 6 5 2 4 6 8 10 13 14 15 15 14 16 17 18 16 13 15 13
23 21 20 20 20 19 19 18 15 12 4 4 0 1 1 2 5 7 10 11 13 14 15 15 15 18 16 15 15 18 17 14
23 21 21 21 21 21 20 18 15 9 6 1 5 4 3 5 7 8 10 13 13 15 15 14 14 15 18 18 21 22 19 16
23 22 22 23 24 23 21 18 14 11 5 8 7 6 7 8 9 10 12 13 14 15 15 14 15 17 19 19 18 15 13 15
25 25 25 25 25 24 21 17 14 11 8 9 8 9 9 10 11 12 12 14 15 15 14 15 15 16 16 16 14 14 14 15
26 26 26 26 25 24 21 17 15 11 12 11 11 12 11 12 13 13 14 14 15 14 13 14 13 13 13 12 11 11 13 15
26 26 26 26 26 25 21 18 13 15 13 12 11 12 12 13 14 15 15 15 15 14 14 13 12 11 11 12 11 13 16 16
25 26 26 27 27 25 22 16 16 14 13 12 12 12 13 14 14 15 16 15 15 15 14 14 13 12 14 13 13 11 13 16
24 26 26 26 25 24 21 16 16 14 12 12 12 13 14 13 14 16 16 16 16 15 15 14 14 12 13 13 13 14 13 15
21 22 23 23 22 22 18 16 15 12 11 11 12 13 14 14 15 16 17 16 16 15 14 13 12 14 16 15 15 16 14 13

GFSFLT1_850_spd_018.txt.gz
Wind_Speed
14 14 13 14 17 18 16 19 22 17 14 16 10 4 7 2 7 1 8 3 2 5 6 12 11 9 10 15 20 18 20 22
15 13 14 12 18 19 19 20 17 14 12 8 6 7 10 9 7 5 5 1 4 6 7 9 10 12 15 17 19 19 21 20
15 14 14 14 15 19 18 18 14 13 11 10 10 10 7 9 7 2 4 3 6 3 12 13 13 17 19 16 20 22 19 16
17 15 15 16 19 18 15 13 17 15 15 14 15 14 12 9 1 2 6 11 9 10 12 14 18 17 17 19 20 16 17 16
19 17 21 19 18 15 16 15 15 20 16 13 9 8 13 13 10 8 2 7 7 7 11 14 15 17 20 18 15 19 21 16
20 21 16 19 20 20 22 22 18 16 13 17 15 10 9 9 6 2 3 9 13 15 14 18 18 18 16 19 16 18 16 17
20 20 22 22 22 24 23 19 17 17 17 19 19 18 16 10 8 8 13 11 12 12 17 19 16 15 14 15 17 16 16 20
24 26 24 24 24 24 22 20 19 19 20 21 20 15 10 6 10 7 11 10 10 13 18 16 16 15 13 16 18 19 24 21
26 25 24 23 22 22 22 22 19 17 17 17 13 7 7 8 6 8 5 9 11 14 15 16 13 13 17 21 22 20 22 16
25 25 24 23 22 23 24 22 21 19 17 15 9 7 6 7 7 6 7 9 11 12 15 15 14 13 20 19 17 14 15 17
25 24 23 22 21 22 22 22 23 21 20 12 8 7 6 7 5 7 8 11 13 12 14 15 16 12 16 16 17 15 17 19
25 25 25 22 21 23 24 24 23 23 20 12 9 9 10 6 7 8 10 13 12 13 14 16 14 14 14 19 23 21 20 20
26 26 23 22 23 24 25 24 24 22 17 12 12 13 9 10 9 9 11 14 12 14 15 14 13 14 15 13 16 20 17 14
27 28 25 24 25 26 24 25 23 18 16 15 16 14 12 9 10 12 14 14 14 16 14 13 16 18 18 16 16 15 12 12
24 27 27 25 25 26 25 25 22 20 19 16 13 14 12 11 12 14 15 15 17 17 14 14 17 13 12 11 11 11 12 13
22 24 25 25 26 25 26 26 22 22 17 16 15 14 13 13 12 14 17 18 20 13 15 16 18 17 13 13 14 14 17 13
15 16 18 22 23 26 26 25 24 20 18 19 15 13 12 12 19 18 18 17 17 15 16 17 18 15 17 16 17 14 13 13
12 14 18 21 23 25 26 25 24 18 19 16 11 11 12 19 15 15 17 17 18 17 17 16 17 18 20 17 14 16 15 13
9 12 17 20 20 21 23 23 18 20 15 12 12 13 10 15 17 15 16 18 18 18 17 16 17 18 18 17 18 19 16 15

GFSFLT1_850_spd_021.txt.gz
Wind_Speed
20 20 23 24 22 24 22 24 23 19 19 24 23 11 4 4 9 7 5 3 3 4 6 7 9 12 15 16 19 22 22 21
22 19 19 24 25 25 22 21 21 20 20 25 19 12 12 11 7 5 5 4 5 8 8 12 15 17 19 21 22 21 21 21
24 22 18 27 29 21 22 20 15 18 16 19 13 16 15 9 8 9 9 7 6 9 12 15 16 18 20 19 19 21 17 16
31 29 22 24 27 24 18 20 17 19 20 18 20 18 16 14 11 10 8 7 8 13 15 17 18 21 21 22 21 18 17 16
31 27 27 20 22 21 15 15 22 24 22 22 25 24 22 18 14 12 10 10 13 17 20 19 20 20 20 21 20 19 20 22
32 27 25 23 19 16 9 25 21 22 29 25 23 22 21 22 22 16 9 11 15 19 20 19 18 19 18 15 15 16 18 16
29 25 23 23 20 18 21 24 29 30 25 26 25 27 28 24 19 13 11 15 18 16 15 16 17 16 15 14 15 17 19 20
28 29 26 24 24 24 28 31 28 28 26 27 26 24 21 18 14 14 17 16 13 14 15 16 15 14 15 15 16 20 21 22
28 27 28 29 28 29 27 27 27 28 28 27 24 21 18 16 15 15 14 11 11 13 14 14 15 12 13 17 19 19 14 15
26 28 28 27 28 27 24 25 26 27 26 25 23 21 17 14 13 11 10 10 11 11 13 14 14 14 14 14 18 16 15 14
30 31 29 28 28 25 25 25 26 24 23 18 18 14 12 12 10 9 10 10 11 13 14 15 16 14 10 12 15 14 15 17
34 32 30 30 28 24 26 25 25 25 23 18 16 12 12 10 9 10 11 13 13 16 15 16 15 11 12 13 16 21 19 16
36 35 34 33 31 28 27 28 27 27 25 19 16 12 12 11 10 12 13 15 18 20 18 18 11 15 18 20 22 16 12 13
37 37 37 36 33 30 30 31 29 27 26 22 17 15 13 12 13 11 14 16 20 21 21 19 11 15 20 20 17 14 9 12
37 39 40 39 36 32 31 31 32 28 26 20 17 14 14 17 14 13 15 19 20 20 22 16 13 19 20 19 18 17 14 16
32 39 40 37 32 30 31 31 31 30 25 19 16 13 20 17 16 17 19 19 20 23 20 15 17 19 20 22 16 17 21 21
9 24 36 35 32 31 31 31 31 33 28 22 14 18 19 16 16 11 19 18 19 18 19 20 21 20 20 21 19 17 17 16
4 2 17 27 29 29 30 29 30 30 25 20 22 19 17 16 13 13 19 19 17 20 20 22 21 21 21 20 21 18 17 18
3 3 4 10 15 21 23 28 28 25 19 23 20 16 14 10 6 11 18 18 22 20 22 24 22 21 21 19 18 18 19 20

GFSFLT1_850_spd_024.txt.gz
Wind_Speed
33 30 25 24 30 34 33 32 30 27 25 26 27 24 14 7 6 8 9 9 8 5 5 6 9 12 17 19 20 21 20 20
30 30 31 29 30 33 31 30 31 30 31 30 28 26 20 13 11 11 11 8 5 6 8 11 15 20 21 20 19 19 19 19
37 34 36 34 30 30 30 30 31 30 26 25 27 26 20 13 13 11 9 9 10 8 9 14 18 19 19 19 19 20 18 16
35 36 36 36 34 31 30 29 26 26 24 26 27 21 19 19 17 14 14 15 12 10 14 19 20 19 19 19 20 18 16 16
36 33 35 38 38 30 25 25 27 27 26 29 31 28 28 25 19 19 19 16 12 13 18 20 17 19 18 18 17 16 16 15
41 39 36 32 31 29 21 25 26 26 29 30 26 26 23 23 24 21 17 14 13 16 18 17 18 17 17 16 14 13 14 16
40 35 28 27 24 23 19 22 28 31 30 29 28 27 28 29 26 21 16 15 17 18 18 16 15 16 16 15 13 13 15 19
40 34 30 28 27 22 17 22 29 29 28 27 27 30 31 27 24 20 19 19 17 14 14 14 14 15 14 13 14 15 18 15
39 35 32 31 27 27 24 25 26 25 28 28 26 25 23 22 21 19 17 14 13 12 15 14 15 15 14 15 16 15 18 15
38 35 35 28 27 29 26 25 28 30 27 25 24 24 23 21 19 17 13 11 12 14 12 14 16 16 16 14 15 15 17 18
36 36 30 28 28 27 27 27 30 29 26 23 22 22 21 18 16 14 13 13 11 13 14 17 16 17 15 13 14 16 17 21
37 35 33 30 30 28 28 30 30 31 30 28 26 24 22 18 18 16 12 11 16 15 16 18 18 19 17 15 16 18 21 20
37 35 33 32 32 31 32 32 32 31 31 30 26 24 23 20 18 15 12 13 13 15 19 20 20 20 16 16 21 23 21 18
40 39 37 38 38 37 37 36 34 31 31 30 27 25 23 20 17 14 14 13 13 16 18 19 21 19 14 17 22 22 19 18
40 40 42 43 43 42 40 37 32 31 32 32 29 25 21 17 15 16 15 13 12 12 16 22 22 17 14 18 22 20 19 21
36 39 42 43 43 42 40 33 32 32 34 32 29 23 17 14 18 19 16 11 12 12 19 19 20 19 20 20 21 21 18 20
12 32 37 39 40 40 36 33 34 34 35 33 26 20 18 22 23 19 10 8 6 15 18 23 21 22 20 20 20 20 19 19
9 4 8 23 33 35 35 34 35 35 33 28 26 23 25 28 24 18 9 9 16 17 23 23 19 21 22 20 20 19 21 20
8 5 2 5 13 22 28 32 34 34 32 31 27 28 30 26 21 11 8 11 14 23 24 19 22 23 22 20 19 21 21 23

GFSFLT1_850_spd_027.txt.gz
Wind_Speed
29 28 26 25 25 27 29 28 27 26 24 24 22 22 19 11 8 8 12 12 11 9 8 5 5 8 12 15 18 19 19 18
28 27 25 27 28 29 30 29 29 29 30 31 28 26 23 16 9 9 10 10 10 10 6 6 9 13 18 22 24 22 20 19
33 31 30 28 28 33 32 31 30 31 31 31 28 26 22 16 14 12 12 13 12 8 7 9 12 17 21 25 24 22 21 18
39 39 37 32 31 32 34 32 32 33 32 29 27 27 24 23 18 17 17 15 12 10 11 12 14 19 24 25 23 20 18 17
40 43 42 39 36 35 36 36 33 33 33 32 32 33 31 28 23 21 18 15 13 13 14 15 18 22 23 22 20 19 16 14
45 45 44 41 38 36 36 33 33 35 34 35 33 34 28 26 24 22 18 16 16 17 16 16 19 22 21 19 17 15 12 12
42 45 43 42 39 39 32 27 28 34 33 33 31 28 28 26 25 23 21 20 19 18 15 15 19 19 25 18 15 14 14 15
38 40 41 40 37 32 29 29 28 28 31 32 27 27 27 26 27 27 25 22 19 14 13 14 19 23 16 15 14 15 15 16
41 41 40 36 32 30 27 27 24 29 32 28 27 28 29 31 30 28 24 21 16 14 17 24 14 14 15 14 14 13 13 14
40 38 40 36 31 27 27 27 25 25 27 29 28 26 29 33 31 28 25 21 15 19 18 13 11 13 15 14 11 10 12 15
34 37 38 35 28 28 24 26 26 28 25 27 28 30 31 31 30 29 26 22 22 16 14 10 11 12 15 15 14 12 13 16
28 32 37 35 31 26 24 29 32 30 28 29 32 30 30 30 28 26 23 19 12 9 11 10 10 14 17 16 13 13 16 17
26 33 38 37 35 30 30 32 32 31 31 32 29 28 28 29 29 26 22 17 14 11 9 10 12 15 18 15 13 14 17 18
31 36 37 38 37 36 35 36 36 36 32 29 28 29 28 28 27 24 22 19 15 13 9 8 11 17 16 16 15 16 17 20
34 36 38 38 38 40 40 39 39 34 30 28 30 30 29 29 26 24 22 19 16 13 8 7 16 15 17 16 17 18 19 20
30 36 36 36 39 42 42 40 37 34 31 31 32 31 31 29 25 22 19 19 16 11 5 13 16 18 18 19 20 19 19 21
16 23 30 35 38 40 41 38 36 34 32 33 33 34 30 26 22 22 21 18 13 5 11 21 21 22 20 19 19 19 19 21
6 1 7 13 20 27 33 36 35 35 36 35 35 32 27 25 25 25 22 16 11 9 24 17 22 23 21 20 20 18 20 21
7 5 2 0 4 12 20 26 31 35 35 34 32 30 27 26 26 20 10 8 15 24 16 20 23 24 23 21 20 19 20 21

GFSFLT1_850_spd_030.txt.gz
Wind_Speed
28 31 30 29 26 25 23 24 25 26 23 21 21 21 20 17 14 11 14 15 13 12 11 9 7 6 7 9 11 14 15 15
28 29 30 30 29 28 28 27 26 26 25 25 26 26 22 20 16 10 12 13 13 14 12 9 7 6 7 10 14 16 16 16
30 32 32 32 31 32 32 31 30 30 29 28 27 25 23 20 17 14 13 15 16 14 11 10 9 8 10 14 17 20 20 18
30 34 35 34 35 35 36 36 33 33 32 30 29 29 25 24 22 19 19 18 15 13 12 12 9 9 13 17 20 22 20 19
33 34 36 35 35 33 33 32 32 31 30 31 32 32 31 30 25 22 20 18 17 16 14 12 10 11 15 20 26 25 20 17
38 38 38 36 34 32 32 33 30 32 31 31 32 33 32 28 24 24 23 20 18 17 17 13 10 11 18 30 32 23 18 14
39 40 40 39 37 35 35 23 34 35 33 33 36 36 33 27 28 26 24 21 20 20 16 13 13 18 24 30 21 19 17 15
36 39 42 43 41 40 39 36 35 37 37 30 34 34 31 26 26 26 26 24 24 22 19 18 18 19 25 18 17 17 16 14
39 41 41 41 41 39 40 34 36 35 33 30 32 34 28 27 27 26 27 27 27 25 23 19 20 30 19 15 16 14 14 12
34 41 39 39 39 36 35 33 25 23 24 21 24 31 25 26 29 30 31 29 27 26 20 19 27 18 13 12 12 13 12 11
25 35 37 36 35 35 31 24 25 21 21 23 27 25 26 27 28 31 33 31 29 23 19 18 12 10 8 8 12 13 10 9
17 21 24 31 30 31 30 27 23 21 26 25 24 25 28 28 29 31 31 30 27 21 17 10 9 7 6 17 15 11 11 10
15 16 19 22 25 30 33 29 26 23 25 27 27 26 28 28 26 29 30 28 24 19 13 11 8 6 10 15 11 11 11 12
14 17 20 24 29 35 32 28 25 24 26 28 28 28 29 27 27 29 30 27 22 19 16 12 9 6 16 15 15 14 14 14
15 18 21 24 29 28 25 26 27 27 26 29 30 29 28 25 26 29 28 24 20 19 15 12 9 8 17 17 18 19 18 18
15 17 19 22 24 27 26 28 31 32 31 29 31 31 28 29 29 27 25 21 20 18 15 13 10 15 20 20 21 22 22 21
4 7 10 15 19 21 25 28 31 33 30 31 33 33 32 30 28 26 25 24 24 22 18 17 12 27 17 21 21 22 22 22
11 8 5 2 2 5 10 16 22 26 29 32 35 35 31 29 27 27 26 25 23 22 21 13 28 25 17 22 22 23 23 23
12 9 6 4 4 5 8 12 15 18 23 28 29 27 24 24 22 19 20 20 18 12 16 25 27 16 24 25 25 25 25 25

GFSFLT1_850_spd_033.txt.gz
Wind_Speed
22 28 31 31 27 24 22 21 21 20 20 20 21 21 20 21 18 13 14 14 14 15 12 13 13 11 7 7 7 8 8 9
22 26 32 33 31 28 25 24 24 25 27 27 26 24 26 25 20 17 14 14 14 15 16 15 13 9 9 7 7 7 10 12
23 26 31 34 33 33 31 29 26 27 29 28 27 26 25 22 20 20 17 16 16 18 18 15 13 12 9 6 7 11 15 17
26 27 30 32 35 35 33 29 29 29 29 28 29 26 27 25 26 23 21 18 19 20 19 17 15 11 7 5 10 18 20 21
29 30 31 33 33 33 32 31 31 32 32 32 32 32 30 30 26 25 23 23 22 22 21 17 14 11 6 9 17 22 19 17
34 36 35 34 33 32 31 32 33 33 33 34 32 33 33 30 28 27 26 25 24 23 20 18 16 13 12 17 15 15 21 16
36 35 34 37 36 35 34 35 34 35 36 33 35 34 33 33 31 29 28 28 26 22 22 20 17 16 16 12 24 25 12 17
38 37 36 37 37 38 36 34 26 21 25 34 35 35 34 35 32 28 30 30 29 26 24 23 20 17 13 19 18 11 13 12
45 44 40 39 39 37 35 34 34 20 24 34 38 36 36 34 33 28 29 29 29 29 25 22 19 13 16 7 15 10 11 14
29 37 43 40 37 36 36 36 36 30 24 23 32 33 34 29 30 30 29 31 30 29 26 22 19 15 12 16 9 8 18 17
17 22 31 36 35 33 31 32 30 30 25 22 24 27 24 27 31 29 30 30 32 31 27 23 18 14 11 11 8 19 15 13
9 14 16 20 24 25 25 25 26 25 25 22 19 20 22 27 28 30 30 32 34 31 27 23 17 17 18 10 11 15 13 12
5 7 9 11 15 18 21 23 23 22 17 18 20 21 24 25 24 25 27 27 33 30 25 20 17 14 11 6 7 11 13 12
7 9 9 10 13 18 21 20 21 18 19 18 19 21 25 27 24 24 22 26 29 30 25 23 20 18 14 8 16 10 14 13
7 10 10 11 13 14 15 16 19 21 20 21 22 24 27 25 20 21 24 27 29 27 27 21 17 17 12 12 24 13 19 20
4 4 4 4 5 7 10 15 16 17 18 19 20 20 19 19 22 23 24 25 26 24 23 23 21 18 12 20 21 19 22 25
6 5 4 3 1 2 4 7 9 10 12 14 16 18 19 21 22 22 21 21 23 24 22 21 17 12 30 30 25 20 24 25
18 16 13 11 8 6 4 3 4 7 9 12 15 18 19 20 21 22 21 23 25 23 21 20 26 34 30 29 19 23 26 28
19 17 14 11 8 6 5 5 6 7 7 9 12 13 13 14 16 17 19 22 24 23 30 29 32 28 29 26 20 27 29 29

GFSFLT1_850_spd_036.txt.gz
Wind_Speed
19 22 26 26 25 26 25 23 21 18 17 19 17 20 20 21 21 20 18 16 15 16 16 15 15 14 11 7 5 6 6 8
20 22 25 25 24 23 23 22 20 21 18 18 17 20 19 22 21 21 20 17 16 18 19 17 17 13 12 11 8 6 7 10
21 24 27 30 28 26 24 24 22 21 18 18 19 19 19 20 23 23 22 18 18 20 19 18 18 17 16 12 9 6 4 7
22 25 28 29 30 29 28 25 22 21 21 19 19 18 24 25 26 25 25 22 22 21 21 22 21 19 17 14 12 9 6 8
23 24 27 29 30 29 28 26 25 24 24 22 24 23 23 27 30 25 28 26 25 25 24 24 22 20 19 17 14 8 11 7
27 28 27 26 27 29 29 28 27 27 26 26 27 28 24 25 26 28 28 28 28 28 26 25 23 22 22 20 12 9 11 14
28 27 25 26 27 28 30 30 26 23 23 29 29 31 30 32 27 28 31 30 30 30 27 25 25 25 23 18 13 13 9 9
28 27 29 29 30 29 30 28 27 27 28 24 34 36 32 34 34 34 33 34 31 29 29 30 29 27 23 18 15 12 14 12
31 31 30 29 29 29 31 34 34 32 26 31 32 33 33 35 30 33 34 33 29 28 32 32 30 25 22 19 15 14 12 13
24 28 30 27 27 30 30 31 33 34 23 14 32 32 27 27 31 31 33 31 32 31 32 33 29 26 23 20 16 11 11 12
11 15 19 25 26 25 24 25 27 30 34 25 25 22 21 22 27 30 31 33 33 33 30 31 32 27 24 18 14 11 10 10
4 7 11 15 18 20 21 22 22 24 26 34 29 23 20 22 26 25 25 29 31 30 31 32 32 29 22 20 11 10 7 10
2 5 8 10 13 15 16 17 20 21 22 21 19 19 19 23 23 23 27 29 29 30 31 33 32 24 22 16 14 11 10 13
4 6 8 9 11 12 13 14 15 16 16 18 19 19 24 26 26 27 27 26 24 26 27 31 32 25 20 17 15 10 17 17
5 7 7 8 9 9 10 11 14 17 17 17 19 22 24 24 23 22 22 22 21 23 28 25 20 16 19 20 18 20 24 16
7 8 9 7 8 9 9 9 9 8 8 8 11 11 12 12 13 15 17 17 20 21 21 23 24 27 25 21 25 29 27 25
8 8 9 10 10 10 8 6 5 4 4 5 6 6 8 10 11 12 13 14 15 20 25 25 26 25 29 30 33 30 29 22
13 13 13 13 13 11 10 9 7 5 4 2 3 4 5 6 8 10 12 14 17 23 24 26 25 29 34 35 32 32 31 22
17 17 18 17 16 13 11 9 8 6 6 5 4 2 1 3 5 7 9 11 14 16 19 19 18 29 30 28 28 24 23 25

GFSFLT1_850_spd_042.txt.gz
Wind_Speed
14 19 20 21 17 26 26 30 30 38 31 22 19 21 24 26 19 20 25 20 18 19 16 19 21 15 16 16 14 15 12 9
20 23 18 23 20 26 32 29 25 24 21 25 23 24 23 32 24 22 19 18 21 21 20 23 20 17 17 15 19 18 15 15
26 27 24 25 31 32 32 30 30 33 25 24 23 26 24 25 29 24 23 19 21 21 20 23 19 19 20 22 20 16 12 14
30 31 33 31 28 33 32 28 24 24 23 19 23 20 17 22 17 21 22 21 22 23 20 24 22 19 23 25 21 18 13 16
35 33 34 35 35 31 30 30 29 29 26 28 28 26 27 26 22 20 19 20 24 24 22 24 24 22 25 26 21 20 20 16
38 39 39 37 38 37 33 31 32 31 29 30 28 26 25 25 27 27 24 24 27 27 27 29 27 26 25 24 23 20 23 20
31 38 38 40 37 40 40 36 35 36 27 26 24 27 25 23 21 23 27 29 30 27 28 32 29 29 27 30 26 26 23 20
30 35 40 41 42 41 41 40 38 35 32 29 28 27 29 31 29 25 26 27 31 30 24 29 32 31 29 29 27 27 26 22
32 32 36 40 42 43 43 42 39 38 35 33 34 27 35 39 32 30 32 30 36 34 31 29 32 31 25 25 27 29 21 23
37 37 38 37 41 43 43 41 38 38 39 42 42 30 31 39 35 33 31 29 33 33 34 28 27 29 24 29 31 28 26 23
24 31 31 39 40 42 42 41 40 38 38 43 47 35 34 32 31 31 31 30 33 31 30 30 29 29 28 30 31 29 26 23
4 7 10 24 38 35 42 43 40 37 41 44 43 39 38 34 26 26 27 29 27 23 28 28 26 28 30 32 33 29 26 18
6 6 7 11 15 16 33 39 39 31 39 40 33 39 38 34 27 23 24 25 24 27 23 21 23 27 31 33 29 26 20 21
9 6 7 8 11 15 15 27 27 26 30 31 26 27 36 33 26 23 24 25 26 25 19 21 22 25 27 28 26 24 26 26
10 14 11 10 12 14 16 17 19 19 24 25 23 24 26 29 26 23 23 24 24 21 21 23 26 26 25 25 27 25 27 25
10 9 15 14 14 16 16 17 19 16 19 23 25 26 30 27 25 22 20 20 19 20 21 22 21 22 24 24 22 20 23 24
10 14 17 15 15 16 20 23 24 19 19 22 23 21 17 14 15 17 17 17 15 14 15 17 19 20 19 13 18 22 20 16
9 13 18 20 18 21 20 19 19 17 18 18 14 13 14 16 16 16 14 13 12 11 12 12 12 13 10 11 15 15 19 22
13 15 17 20 20 19 20 18 20 20 17 16 17 17 15 14 13 13 13 13 12 10 10 9 9 8 9 9 11 13 18 22

GFSFLT1_850_spd_045.txt.gz
Wind_Speed
14 17 20 19 21 25 27 32 37 39 38 37 35 28 35 37 39 27 15 18 22 23 19 19 21 20 21 20 16 17 16 14
18 19 22 22 23 26 29 31 31 34 35 31 35 31 36 38 32 21 21 25 23 27 22 22 21 21 22 20 20 22 21 19
23 21 24 22 26 28 28 33 38 37 35 33 29 27 26 26 29 27 27 25 23 25 22 24 23 25 24 22 23 24 22 22
31 26 25 27 30 36 38 40 39 36 29 26 24 24 27 29 35 33 28 26 23 28 25 26 26 23 24 25 24 23 22 22
36 32 30 31 34 36 37 34 35 33 30 29 32 33 34 31 31 35 30 30 27 28 25 25 28 21 22 26 26 25 22 23
42 38 33 34 34 38 37 36 34 30 28 31 33 33 31 32 27 27 25 24 24 25 26 25 27 26 25 26 27 30 24 29
45 39 36 33 36 38 38 38 38 35 35 35 36 33 32 32 29 28 26 25 25 28 26 27 28 29 28 27 29 29 25 28
49 46 46 42 41 41 41 40 39 39 38 34 35 36 38 36 35 35 33 32 32 26 31 26 28 28 30 31 32 29 29 30
51 52 49 46 46 42 41 42 41 41 42 39 37 37 40 42 38 36 32 30 29 29 30 27 26 22 27 32 32 33 33 31
45 52 52 48 47 47 46 43 43 42 48 45 42 40 42 41 37 38 33 33 32 30 30 32 27 24 25 28 32 31 31 31
45 42 50 46 47 47 47 48 48 47 48 49 47 43 46 43 38 37 37 33 33 33 30 29 27 21 23 27 31 28 30 30
18 40 35 33 40 42 47 49 44 44 49 50 50 49 46 43 38 31 34 31 31 31 27 24 23 25 27 29 29 29 31 29
8 14 35 30 34 46 44 55 42 40 54 52 51 48 46 38 35 34 32 26 23 23 22 23 23 25 28 27 28 30 31 31
13 13 15 14 15 33 49 59 48 39 49 47 48 40 31 34 38 37 33 26 23 23 23 23 24 20 20 23 26 29 31 30
19 17 14 10 8 8 21 42 43 43 38 33 30 25 27 22 26 28 28 23 25 23 24 23 22 19 20 22 26 27 24 22
18 21 19 16 13 12 15 26 32 32 24 23 23 23 24 19 19 23 22 24 22 22 22 21 21 21 22 24 23 19 18 16
13 15 22 20 18 17 18 19 24 26 24 25 26 26 23 22 22 23 24 23 23 21 21 20 21 21 19 15 15 14 13 16
19 18 24 27 26 24 24 22 23 26 29 29 27 26 26 27 25 22 23 22 19 19 18 17 14 12 13 13 10 12 15 16
22 23 25 28 28 26 27 25 21 22 25 27 27 26 24 24 24 20 19 18 18 17 16 15 15 15 14 13 13 13 11 10

GFSFLT1_850_spd_048.txt.gz
Wind_Speed
12 14 15 15 16 17 21 26 37 43 44 43 44 41 44 43 38 38 35 26 18 16 15 16 18 19 20 19 19 18 20 15
14 14 15 14 15 17 26 32 40 41 41 42 44 44 44 42 40 37 33 25 21 19 21 18 20 22 23 23 22 23 21 20
18 19 20 19 19 21 29 34 36 38 41 44 45 48 44 39 44 43 39 29 26 22 24 25 24 25 27 27 26 24 23 24
26 25 24 22 24 28 30 32 33 37 37 36 40 36 35 42 46 45 38 36 28 25 27 26 25 25 29 30 26 27 26 26
31 30 30 27 26 27 29 33 34 35 38 37 41 39 39 42 45 44 38 31 26 25 27 26 27 29 32 29 28 28 26 27
38 37 33 29 29 32 33 35 39 38 38 38 37 37 34 34 37 41 36 31 31 30 32 28 30 32 30 29 28 30 29 29
41 38 35 35 34 37 37 40 42 41 39 37 39 40 38 37 37 36 35 34 34 32 31 31 31 30 28 27 25 28 30 31
46 44 43 40 42 43 43 40 40 40 40 39 41 41 39 40 39 39 37 35 38 37 31 28 25 25 29 29 28 28 31 33
49 50 47 47 46 46 47 46 43 42 43 42 41 41 43 44 41 41 40 37 36 28 27 24 27 28 26 28 30 32 33 33
51 50 50 50 48 50 50 49 47 46 45 44 45 44 46 48 45 42 42 39 35 31 30 28 27 28 27 26 27 31 32 31
48 48 51 51 49 48 50 50 48 50 47 45 44 44 46 48 49 46 45 41 40 37 30 31 28 26 26 27 25 24 28 30
46 50 50 51 50 49 49 51 51 49 48 43 41 45 46 50 52 49 44 38 42 37 34 31 30 26 27 26 25 25 28 31
33 39 45 52 52 51 49 50 51 50 46 47 40 43 49 51 49 40 42 35 34 36 31 30 28 27 27 26 26 29 31 31
19 23 38 44 50 51 45 45 49 52 50 47 39 48 44 49 53 34 32 44 37 36 33 27 26 26 25 24 28 29 30 30
24 23 26 30 39 39 38 46 50 51 50 49 44 44 54 47 47 39 39 41 40 34 30 24 25 24 24 23 24 27 28 25
26 29 28 32 35 31 28 31 49 52 49 46 52 44 42 44 42 43 44 42 39 28 24 26 25 25 24 25 25 23 22 22
30 32 30 29 28 25 22 20 27 41 46 45 46 46 42 37 36 34 27 33 31 27 26 24 25 25 23 20 18 19 19 18
27 31 30 31 32 30 27 23 23 28 35 41 45 42 37 32 29 28 30 31 29 26 26 25 23 20 19 19 18 18 17 17
28 29 31 35 33 30 27 25 26 27 33 36 35 35 34 32 31 30 26 25 24 22 22 19 19 19 18 17 17 17 16 17